Location: Csohesd
(46.2500°N, 22.6167°E)
Time: 04:29:10
(UTC+00:00)

Cosmos 1602 Rocket - Pass Details

Date: 21 October 2021
Orbit: 603 x 634 km, 82.5° (Epoch: 30 November)

Event Time Altitude Azimuth Distance (km) Brightness Sun altitude
Rises 16:53:55 0° 357° (N) 2,892 7.0 -14.7°
Reaches altitude 10° 16:56:16 10° 4° (N) 1,977 6.1 -15.2°
Maximum altitude 17:00:25 41° 76° (ENE) 882 3.9 -15.9°
Enters shadow 17:03:16 18° 139° (SE) 1,501 5.1 -16.4°
